Theta_e
306 307 307 307 309 309 310 309 308 309 312 314 315 316 315 315 312 314 318 321 315 309 311 311 310 307 308 307 304 308 308 309 308 303 300 300 301 301 300 302 300 298 297 296 297 294 291 308 306 299 305 308 306 307
306 307 307 308 309 309 309 308 308 309 311 312 314 315 315 315 313 310 316 321 320 311 311 316 315 315 313 312 309 312 309 309 309 304 303 303 299 302 301 296 305 298 304 303 301 301 308 310 307 309 309 306 307 308
306 307 308 308 309 309 307 308 308 309 310 312 313 315 316 315 312 311 315 319 316 311 311 312 311 314 314 313 317 307 310 313 314 316 308 304 301 304 297 299 301 304 306 301 301 303 303 304 306 308 309 308 309 309
306 307 307 307 309 309 308 308 308 309 311 312 313 314 314 314 312 309 316 317 316 312 304 303 312 310 313 314 314 316 315 315 314 311 307 304 301 308 301 303 302 303 303 298 299 301 304 306 308 309 309 309 309 308
305 306 306 306 307 309 309 309 309 309 311 312 313 314 314 314 311 314 318 319 316 309 302 303 311 314 313 312 310 312 313 313 309 305 303 302 306 306 305 303 299 303 299 298 299 305 304 306 309 309 307 307 306 304
305 305 305 305 306 306 308 309 310 310 310 312 313 314 313 312 309 313 308 317 315 314 307 301 308 307 309 311 310 311 311 311 309 306 304 307 307 303 300 297 302 304 304 305 304 307 307 309 310 309 306 305 304 303
304 304 304 304 304 305 306 307 310 310 310 311 312 312 312 308 310 305 302 307 306 315 300 300 301 306 309 310 310 309 312 309 307 306 304 303 304 301 299 296 303 305 307 308 309 309 305 306 304 306 306 305 303 300
304 304 303 304 304 304 305 306 309 310 310 311 310 307 306 305 304 303 305 306 308 302 301 293 300 302 309 305 304 310 306 307 306 305 308 302 305 302 298 304 306 307 308 307 307 307 306 306 305 305 305 302 298 299
304 304 303 303 303 304 305 305 307 309 308 307 307 306 307 304 304 305 304 305 307 303 296 299 298 296 307 306 306 306 307 300 308 302 302 305 301 298 303 305 306 307 306 306 306 305 305 303 303 303 301 299 297 297
302 304 303 303 303 303 303 303 303 303 304 304 305 301 296 300 306 306 303 299 299 300 301 300 305 300 304 304 302 301 303 300 296 301 306 301 300 309 309 308 310 309 308 307 304 303 303 302 302 301 297 298 297 298
301 303 303 303 303 302 302 302 302 303 303 303 297 295 301 306 302 299 294 294 296 294 301 302 304 300 307 300 300 304 300 300 294 298 299 298 298 305 308 308 309 309 308 307 306 305 305 304 302 299 298 297 298 298
300 301 303 302 302 302 302 303 301 301 300 301 301 303 302 298 296 292 292 295 293 293 301 300 302 303 304 308 302 302 297 299 292 304 298 295 301 308 306 307 308 308 307 306 306 304 304 303 301 299 298 297 298 298
300 301 303 303 302 302 302 303 303 302 303 305 302 297 296 294 289 289 287 290 292 299 301 301 299 302 303 303 301 300 293 295 303 295 293 299 306 306 306 307 308 309 308 306 305 305 304 302 300 299 297 299 299 298
300 300 301 302 302 302 301 300 301 301 305 299 294 287 291 290 292 294 295 296 301 301 301 301 299 298 300 298 299 293 298 299 291 290 292 301 306 305 306 307 307 307 307 306 305 305 303 300 299 299 299 300 298 298
300 300 299 301 302 302 301 300 300 303 301 294 295 289 291 298 299 297 301 301 303 303 300 298 298 299 297 296 298 297 292 290 291 292 297 306 306 305 306 307 306 307 308 306 306 305 303 300 299 298 299 299 299 300
299 298 301 301 301 302 301 302 303 303 298 295 295 291 296 295 294 296 297 298 304 304 304 302 297 294 292 295 292 291 290 289 295 300 304 307 305 307 308 308 307 308 308 307 307 306 303 300 298 298 299 299 299 304
298 301 300 301 303 301 300 302 301 296 296 293 293 297 297 298 297 296 297 298 301 300 294 297 291 291 298 293 291 295 293 298 302 303 306 308 308 308 309 308 308 308 308 308 307 306 303 300 300 299 297 298 299 306
298 301 301 302 303 302 303 301 298 296 291 295 292 296 296 300 297 298 297 300 294 295 294 294 297 291 291 290 293 298 301 304 305 306 306 309 310 309 309 308 308 308 308 308 308 307 303 300 298 297 299 299 299 305
298 301 302 301 301 298 296 297 299 291 293 296 296 298 297 296 299 299 299 299 298 296 295 296 292 293 294 301 300 299 302 305 304 304 305 307 308 308 309 309 308 308 309 309 306 306 303 301 299 299 300 300 300 304
299 300 301 300 300 298 293 294 301 294 293 295 297 295 295 295 296 297 297 297 297 295 293 292 293 297 298 301 303 303 303 304 304 302 302 305 307 308 308 308 307 309 309 309 308 301 302 300 299 299 300 300 301 306
299 302 300 301 302 300 296 295 293 295 295 293 298 297 293 296 295 294 294 296 293 293 292 296 298 300 303 305 305 305 305 305 303 302 302 301 304 306 307 307 308 307 306 307 307 303 301 301 299 299 300 300 304 308
301 299 301 301 296 296 295 298 296 299 295 294 294 295 292 291 292 293 296 292 292 294 296 298 300 302 301 301 303 305 306 305 305 302 297 299 302 303 304 305 305 304 304 305 307 307 305 302 300 299 302 301 302 308
298 300 298 297 292 291 289 300 291 293 288 291 295 290 291 293 295 300 292 294 294 297 298 298 301 302 301 302 303 303 304 304 303 303 303 302 303 304 303 304 305 304 303 305 310 308 306 298 298 298 302 302 305 306
294 294 290 291 291 287 294 290 295 291 292 290 290 287 291 295 299 295 291 297 297 298 298 299 300 300 301 301 299 300 302 303 302 303 304 302 301 301 303 304 305 306 306 306 307 308 306 304 298 299 300 303 305 306
289 289 290 284 292 288 286 287 288 290 287 289 288 289 292 298 292 290 291 296 298 300 301 302 303 302 298 298 302 302 305 303 301 300 302 303 302 302 302 303 304 304 306 305 306 306 307 303 302 302 298 301 304 307
283 288 286 288 289 287 290 285 286 287 289 288 289 293 294 291 287 287 292 296 298 300 300 301 301 300 299 301 299 299 301 306 306 304 304 303 302 301 301 300 301 302 306 306 306 306 307 305 302 301 298 297 292 304
283 286 291 296 295 293 291 293 294 292 288 287 291 289 288 284 285 293 299 301 299 300 302 302 302 301 300 300 303 302 303 303 303 305 307 307 306 305 304 301 301 304 307 306 306 307 307 306 303 302 299 299 302 305
290 291 287 292 292 294 288 289 288 288 291 295 294 286 285 287 288 296 297 299 301 300 301 301 301 301 299 300 302 303 306 305 305 305 306 308 307 308 308 306 307 294 306 308 307 308 309 308 305 303 301 297 302 305
289 293 292 289 290 290 291 290 290 293 295 294 290 288 290 295 298 298 298 297 298 297 296 297 298 301 302 300 301 302 302 304 301 295 295 299 302 304 307 306 307 307 307 308 289 298 309 307 306 305 303 299 300 303
289 295 290 289 287 289 295 297 295 296 298 297 293 293 294 296 295 297 297 298 297 297 296 297 298 297 297 296 297 300 303 303 303 299 299 301 301 303 305 305 306 307 307 308 308 307 290 301 298 304 300 299 299 301
296 295 291 291 290 295 297 297 295 293 291 289 290 287 288 292 293 299 299 300 297 296 296 295 295 296 295 296 296 295 296 302 302 302 306 308 307 305 307 307 308 307 307 308 308 307 306 303 303 300 299 298 299 302
294 290 290 288 291 296 294 289 289 288 289 289 289 289 289 289 288 297 301 297 296 294 292 293 294 295 298 299 298 299 291 300 302 304 306 308 309 309 308 307 307 307 307 308 308 307 305 304 301 300 299 298 299 303
293 294 293 291 291 288 290 290 290 291 294 294 294 294 294 293 290 297 302 300 297 295 295 296 298 299 299 299 300 299 296 302 295 288 289 290 292 299 307 308 308 308 307 307 307 306 303 302 301 301 299 298 299 300
Wind_Speed
8 12 14 14 15 14 13 13 14 14 11 10 9 8 8 6 5 6 5 2 5 6 3 2 4 7 6 5 8 3 5 8 7 8 5 4 7 1 6 5 4 5 4 3 6 9 5 5 2 5 9 11 13 12
10 14 14 14 14 12 11 12 12 13 12 10 10 9 9 7 6 5 4 3 3 6 6 1 6 8 9 10 8 2 4 4 5 2 3 3 5 5 6 2 3 3 6 4 4 4 3 8 6 6 6 9 11 13
11 11 14 13 11 8 7 9 10 10 9 10 10 9 9 8 7 6 4 3 5 6 9 10 6 6 4 7 9 6 3 5 1 5 5 2 5 5 3 4 4 4 3 5 4 5 4 4 6 7 9 9 11 11
10 12 12 15 10 5 7 8 9 9 9 9 9 8 8 9 7 7 4 4 4 5 6 3 4 4 1 2 8 9 5 2 5 5 7 6 3 3 3 3 4 6 1 4 6 4 6 6 8 9 10 9 11 12
9 11 13 14 18 1 5 7 8 9 8 8 8 9 8 10 9 6 3 2 4 6 3 4 5 4 1 6 6 7 7 7 7 5 5 7 3 2 4 5 5 4 2 2 2 8 6 8 8 9 11 12 12 13
8 10 12 13 14 14 11 6 6 8 8 6 6 6 8 12 10 2 2 6 6 3 5 4 3 4 2 5 6 8 8 7 7 3 4 1 4 5 3 4 6 6 3 2 5 4 5 5 1 8 10 11 12 13
7 9 11 13 13 13 13 13 6 8 8 7 6 5 10 17 4 1 1 5 5 3 2 4 5 5 3 7 6 6 6 5 6 4 4 4 4 4 5 5 10 5 3 3 2 2 2 3 8 8 10 11 9 9
5 7 10 11 12 12 12 14 8 12 10 7 14 19 17 18 11 2 2 3 2 1 2 3 4 5 6 6 6 5 6 5 6 5 2 6 6 5 4 9 7 6 6 5 5 5 5 5 6 9 8 8 9 7
5 5 7 9 10 11 12 13 19 16 19 22 20 15 4 3 2 4 3 2 2 1 2 5 6 3 7 6 4 5 5 5 3 5 7 3 6 5 3 10 8 8 5 6 3 1 3 4 7 7 9 9 7 6
9 5 3 6 8 9 9 12 12 11 9 5 2 2 3 3 9 5 2 2 1 1 5 6 6 2 5 4 5 4 4 5 4 7 4 5 7 11 6 5 7 7 5 3 4 5 7 7 7 8 8 6 5 6
7 8 2 4 6 7 5 4 5 4 1 2 2 3 3 1 0 3 2 2 3 5 6 7 10 5 4 5 3 3 3 3 4 6 5 5 4 9 9 10 9 8 7 7 5 4 5 7 7 6 6 5 4 5
5 6 2 2 5 7 8 7 3 1 2 3 5 4 2 2 2 4 5 5 6 5 5 7 5 5 4 3 2 4 3 3 2 2 4 4 6 16 12 12 9 8 7 6 5 5 8 8 7 5 4 4 4 4
5 6 1 3 4 5 8 10 14 11 4 3 4 5 4 4 4 5 8 5 5 5 4 4 5 5 3 6 3 4 5 6 2 4 3 3 12 13 10 11 10 8 7 6 4 6 7 7 7 5 4 4 5 4
5 4 4 2 2 3 4 4 1 2 4 2 4 4 5 5 5 4 1 5 2 3 3 6 6 7 2 6 2 5 2 4 5 5 6 6 12 11 10 10 9 9 7 5 4 5 7 7 6 4 3 5 4 3
5 3 2 1 1 1 0 2 5 5 3 3 4 3 5 2 2 3 1 1 2 2 3 5 5 1 3 3 4 2 5 6 5 3 3 12 15 11 10 10 8 8 7 5 4 6 8 7 5 5 4 5 2 3
6 5 4 3 2 3 4 7 6 4 3 3 4 3 3 3 4 3 1 2 3 2 3 3 3 5 5 3 6 7 4 5 4 4 7 12 11 9 9 9 8 8 7 5 5 6 8 5 6 5 6 4 2 3
8 1 7 2 6 5 6 5 3 4 3 3 3 4 3 3 3 2 4 3 5 4 2 1 5 4 4 5 5 4 4 4 6 5 9 12 11 10 11 9 9 8 7 6 6 6 10 6 7 5 5 3 2 2
4 7 6 6 7 5 4 4 3 3 5 4 4 3 3 1 3 3 5 6 2 0 2 3 3 4 5 6 9 6 6 6 5 8 8 8 11 10 9 10 9 8 7 6 6 7 8 6 5 4 5 4 1 2
7 5 8 3 5 5 3 4 3 4 4 1 3 3 3 2 1 4 3 7 7 1 3 3 4 6 5 1 6 7 5 6 8 7 9 9 9 9 8 9 9 9 7 7 4 4 7 7 4 4 3 3 3 3
4 1 2 2 4 4 5 2 2 5 2 1 3 4 5 4 2 4 5 4 2 3 4 4 4 6 6 4 4 7 9 8 7 10 9 8 7 8 7 9 7 8 6 7 6 3 7 6 4 4 3 4 4 6
5 4 4 5 4 3 2 2 3 1 3 3 1 3 4 5 6 7 6 7 6 4 4 4 5 6 4 4 6 6 8 10 7 7 9 9 8 7 8 7 7 7 6 5 4 7 2 5 5 5 5 4 5 7
3 3 3 5 3 2 4 3 2 0 4 2 4 5 5 5 5 6 6 6 8 8 5 5 3 2 4 4 4 3 7 6 4 6 4 6 8 6 7 7 7 5 5 4 4 5 6 6 6 4 5 4 6 8
4 3 2 3 2 1 5 2 5 3 4 2 2 4 4 4 1 2 4 8 7 7 8 8 6 6 4 3 3 2 3 5 6 5 4 4 4 4 5 5 6 5 4 4 2 5 8 8 8 5 4 5 7 6
3 2 3 3 5 3 2 4 2 3 3 5 4 4 1 2 3 4 4 2 2 5 5 6 5 6 8 9 7 7 8 8 8 7 6 7 7 6 5 5 6 6 4 6 5 6 9 7 9 7 5 7 8 8
2 2 4 4 4 5 5 4 4 3 5 1 3 3 2 1 2 2 2 2 3 3 3 1 2 3 2 3 4 6 6 6 8 10 9 9 8 8 8 7 6 5 6 6 6 6 9 9 8 9 6 7 9 11
2 5 4 3 3 3 3 3 3 3 4 2 3 2 2 1 3 4 3 1 5 4 3 2 2 3 5 4 4 4 5 6 6 7 8 9 10 9 10 9 9 8 6 6 7 8 10 9 9 11 9 8 7 9
4 4 5 3 1 2 5 5 3 1 4 0 1 2 2 2 4 0 4 7 4 4 4 4 5 5 5 5 4 4 4 5 5 8 8 8 9 8 9 11 12 9 10 10 9 9 11 11 11 11 9 7 10 12
3 3 3 3 1 3 4 5 4 1 1 2 2 2 3 1 2 3 4 6 6 5 4 4 4 6 6 6 7 6 6 5 4 6 8 11 10 8 10 10 9 8 8 11 10 9 10 11 11 12 11 8 10 11
5 3 3 6 6 4 2 2 3 3 3 3 1 2 2 2 4 7 6 5 5 4 5 6 6 5 5 6 6 6 6 7 7 9 11 12 12 11 11 11 8 8 9 9 6 2 12 10 11 11 12 8 7 8
4 3 5 4 5 2 2 2 3 1 2 1 1 3 4 5 3 3 5 5 5 4 4 5 4 4 5 6 7 7 8 9 9 8 11 13 11 9 8 10 11 10 9 10 10 10 11 11 10 9 9 5 5 9
2 3 5 5 3 3 5 5 3 2 1 1 1 2 3 2 3 5 3 5 5 4 4 4 4 4 6 7 6 6 6 5 6 12 13 10 9 9 9 8 9 10 10 11 12 11 12 11 11 12 12 10 10 12
3 4 4 5 4 3 4 1 1 2 2 3 4 5 3 4 3 2 2 4 4 4 5 6 6 6 4 4 3 4 4 3 6 10 13 9 8 10 13 12 12 11 11 12 12 12 14 13 12 13 13 13 13 15
3 4 5 3 2 1 3 3 3 3 3 3 1 3 3 2 2 3 4 5 5 5 8 6 5 4 6 7 5 4 3 2 3 4 3 3 4 2 8 9 9 10 12 11 11 11 14 16 14 16 15 13 13 14
Wind_Direction
312 308 301 297 294 284 262 234 226 234 235 220 222 221 216 222 270 287 88 48 302 289 279 298 280 291 269 249 281 34 240 199 242 239 279 259 281 357 278 271 312 293 251 239 266 238 233 22 244 358 8 337 330 322
310 302 303 303 291 280 252 225 215 228 217 211 218 214 207 203 231 278 265 137 267 266 333 18 290 298 292 309 311 226 334 262 5 282 284 259 261 282 307 200 301 256 3 318 341 36 41 31 7 1 345 321 338 348
323 332 329 309 299 272 247 207 210 225 220 209 210 212 201 191 204 251 310 85 230 260 256 215 208 136 245 252 249 272 162 5 77 336 320 18 267 322 278 318 287 149 27 270 352 73 5 332 340 10 341 359 341 338
351 351 353 2 331 236 219 206 213 220 212 197 202 203 197 181 184 244 263 351 281 273 281 114 156 189 134 256 209 233 299 306 291 265 279 276 236 272 312 358 302 31 49 342 299 270 328 99 37 7 334 344 347 349
1 3 8 11 15 356 215 215 212 211 208 186 193 190 185 167 166 242 280 275 331 317 294 293 240 101 297 214 212 209 219 252 252 225 226 248 301 319 249 323 274 126 318 231 21 38 327 23 26 10 345 355 352 347
10 15 17 21 19 22 31 225 211 193 179 186 181 175 179 153 150 121 260 207 193 253 292 287 33 193 176 209 211 203 197 226 258 262 260 347 82 280 212 241 82 91 106 1 33 356 340 12 309 10 349 355 7 7
24 20 22 24 23 18 24 23 197 190 171 177 176 181 160 140 108 118 311 20 354 182 258 270 215 139 220 183 167 176 187 225 254 229 242 272 157 225 262 252 127 137 134 113 73 299 98 15 354 1 356 13 15 44
23 29 28 27 25 26 25 28 29 166 168 157 112 103 101 103 116 115 46 68 336 31 268 258 246 180 188 200 174 174 197 211 191 260 128 241 134 231 261 113 124 145 132 115 85 59 42 0 355 15 9 32 41 18
360 26 35 34 34 35 41 57 56 98 109 115 115 120 114 42 64 93 132 237 5 107 246 234 265 94 169 232 133 177 226 212 148 234 230 200 216 212 194 141 163 170 183 138 142 97 9 1 357 20 42 32 27 9
4 352 41 40 39 52 60 56 48 55 66 80 76 64 80 46 116 146 38 137 44 257 235 254 286 203 209 182 187 185 201 229 216 207 126 230 249 91 134 148 127 118 129 186 290 25 355 0 14 33 59 42 19 14
1 360 105 58 47 53 64 35 33 29 358 40 74 72 87 185 10 21 105 211 189 213 214 231 240 207 176 226 179 232 262 225 236 176 226 213 197 145 140 141 133 128 108 92 83 54 28 24 30 41 48 41 25 21
1 354 356 81 53 46 42 30 211 88 25 69 94 104 148 200 169 188 189 173 220 242 176 225 182 233 133 221 164 293 205 270 247 181 235 233 117 134 148 149 137 127 122 106 76 60 50 52 53 54 59 50 33 27
10 360 70 119 71 54 53 55 67 105 176 192 177 155 187 176 205 215 179 197 201 198 155 176 167 180 131 219 185 230 232 222 121 197 247 64 125 132 149 152 158 145 122 124 102 79 71 75 67 57 65 77 50 29
8 14 33 95 93 69 50 50 140 283 259 236 152 163 225 180 220 212 300 56 106 70 166 182 162 195 179 183 215 217 228 237 225 225 179 136 137 136 157 165 158 156 148 118 92 75 73 74 85 75 71 67 54 17
345 330 284 171 187 144 57 290 285 242 254 240 214 212 215 213 137 80 338 157 96 350 272 216 168 87 107 180 230 228 201 227 225 211 142 120 134 151 171 172 164 148 146 119 77 64 78 91 96 91 85 74 37 292
314 297 176 95 216 203 262 247 224 222 245 241 235 237 224 208 159 144 171 180 22 343 299 295 165 148 216 195 210 204 223 221 123 140 105 129 142 160 163 159 153 141 114 110 88 75 91 108 107 110 99 85 337 274
301 204 115 130 181 216 260 267 215 223 278 259 227 230 274 188 170 159 122 86 353 268 218 179 213 189 140 204 221 198 230 112 129 149 137 137 158 157 150 135 129 129 127 116 100 74 90 109 117 126 119 99 305 299
255 125 126 179 215 218 189 229 253 243 236 222 244 223 236 233 117 145 119 109 99 271 165 215 318 242 228 210 189 162 144 125 127 118 122 150 154 157 141 136 140 141 128 124 97 88 105 116 126 125 127 124 278 334
3 36 133 170 286 291 190 196 263 252 243 345 237 231 227 215 142 133 133 130 124 269 298 197 267 251 252 67 143 159 148 137 138 129 120 141 142 141 151 138 139 134 140 126 148 104 93 113 126 136 143 140 178 194
282 231 141 247 276 264 213 143 246 266 299 283 262 242 231 239 195 165 163 139 157 174 222 195 226 288 278 119 131 145 132 122 199 138 146 141 137 142 154 156 145 133 149 132 116 89 118 117 128 139 159 148 202 198
199 137 211 257 240 246 283 248 245 287 302 268 228 261 254 220 217 216 200 171 188 234 227 201 178 195 12 46 107 143 153 168 147 160 161 150 164 170 152 137 149 178 162 167 149 111 129 126 147 147 170 169 220 248
116 180 253 187 263 184 258 236 280 267 247 285 260 230 251 228 233 215 201 182 220 233 234 248 217 217 138 127 130 236 155 172 194 125 154 120 163 175 170 171 181 175 175 182 173 133 112 131 144 155 184 168 225 222
197 222 234 199 264 75 261 237 251 201 256 225 223 241 231 210 121 105 229 212 208 217 219 230 172 225 301 145 168 251 271 216 200 194 185 238 256 200 201 206 165 186 181 161 177 131 115 127 146 156 180 174 213 223
148 252 259 206 195 252 220 230 198 263 249 242 236 252 269 112 181 207 241 262 70 147 196 220 204 224 212 225 242 223 220 219 249 251 217 215 228 227 233 235 165 185 193 141 164 131 134 147 144 161 197 184 201 199
223 274 167 250 244 221 215 210 216 244 248 299 317 313 21 264 260 232 256 300 258 162 183 170 251 301 1 256 286 297 283 262 226 221 231 240 240 245 239 219 227 200 178 166 173 176 138 145 167 166 182 198 202 207
265 190 214 209 160 228 222 236 226 257 278 231 171 226 295 239 269 248 207 78 99 117 88 57 335 313 286 263 268 211 279 309 305 285 266 215 217 226 233 225 209 193 192 205 194 184 151 165 171 176 176 203 246 233
248 184 181 211 232 225 261 258 287 242 254 61 258 21 308 274 242 218 71 31 46 44 355 336 304 287 271 253 261 275 261 271 268 281 286 283 277 233 224 228 220 195 175 201 221 190 167 167 173 181 175 192 210 223
297 295 211 183 248 259 273 298 291 303 168 236 268 228 198 260 282 28 60 26 357 336 312 322 279 251 251 263 263 239 228 208 253 271 267 271 271 247 254 246 222 170 181 178 210 190 167 164 173 175 180 186 203 219
241 198 230 250 234 238 229 238 302 19 26 6 341 310 271 325 354 337 359 339 312 289 262 273 274 268 244 217 236 251 243 244 203 216 228 237 227 223 225 226 156 172 177 158 54 281 156 157 168 173 178 186 211 230
211 200 261 241 266 309 349 24 316 347 314 252 204 290 279 297 330 297 283 290 300 279 299 296 289 270 275 277 267 248 221 213 203 213 222 226 218 214 216 196 175 179 181 161 162 117 105 117 121 131 152 170 221 250
272 224 258 278 301 4 26 19 5 352 34 266 229 244 257 293 288 275 219 335 319 311 301 306 311 280 273 264 261 259 238 208 201 219 236 254 256 222 197 198 179 200 183 169 164 163 161 161 162 167 164 169 207 242
234 276 329 313 333 43 41 13 263 247 207 213 206 198 211 205 244 159 47 348 319 303 284 258 272 284 282 254 232 252 229 196 191 219 229 228 230 189 186 188 191 195 178 176 165 168 170 172 171 172 168 170 195 216
296 310 307 302 308 274 220 233 237 246 227 231 117 325 330 348 14 77 42 33 341 336 311 294 270 264 268 259 255 160 163 118 101 50 43 46 43 272 204 185 173 172 172 167 167 168 175 180 180 175 169 173 184 205